EW2849 Weather Reports


Display with metric or nautical units.
time (UTC)temp
F
wind
direction
speed
MPH
gust
MPH
rain 1hr
in
rain 24hr
in
rain mn
in
humidity
%
barometer
mb
20260904192749 66 285 6.0 9.0 0.00 0.00 0.00 94 1015.6
20260904191609 66 293 6.0 8.0 0.00 0.00 0.00 94 1015.6
20260904190408 66 270 5.0 9.0 0.00 0.00 0.00 94 1015.6
20260904185147 66 293 7.0 11.0 0.00 0.00 0.00 95 1015.6
20260904183945 66 293 6.0 11.0 0.00 0.00 0.00 95 1012.2
20260904182743 66 293 9.0 13.0 0.00 0.00 0.00 96 1012.2
20260904181542 66 267 7.0 12.0 0.00 0.00 0.00 96 1012.2
20260904180341 67 265 7.0 14.0 0.00 0.00 0.00 98 1012.2
20260904175140 67 270 8.0 12.0 0.00 0.00 0.00 98 1012.2
20260904173959 67 270 7.0 10.0 0.00 0.00 0.00 98 1012.2
20260904172738 67 270 6.0 7.0 0.00 0.00 0.00 99 1012.2
20260904171537 67 270 4.0 7.0 0.00 0.00 0.00 99 1012.2
20260904170335 67 270 4.0 8.0 0.00 0.00 0.00 99 1012.2
20260904165135 67 288 8.0 11.0 0.00 0.00 0.00 99 1012.2
20260904163934 67 270 8.0 13.0 0.00 0.00 0.00 99 1012.2
20260904162733 67 284 9.0 24.0 0.00 0.00 0.00 100 1012.2
20260904161531 67 270 10.0 17.0 0.00 0.00 0.00 100 1012.2
20260904160331 67 270 9.0 11.0 0.00 0.00 0.00 100 1012.2
20260904155130 66 274 9.0 12.0 0.00 0.00 0.00 100 1012.2
20260904153928 66 279 8.0 14.0 0.00 0.00 0.00 100 1012.2
20260904152726 66 270 8.0 9.0 0.00 0.00 0.00 100 1012.2
20260904151525 65 258 8.0 12.0 0.00 0.00 0.00 100 1012.2
20260904150324 64 270 8.0 13.0 0.00 0.00 0.00 100 1012.2
20260904145123 64 286 9.0 15.0 0.00 0.00 0.00 100 1012.2
20260904143922 64 285 7.0 13.0 0.00 0.00 0.00 100 1012.2
20260904142721 65 293 9.0 12.0 0.00 0.00 0.00 100 1012.2
20260904141520 65 309 11.0 16.0 0.00 0.00 0.00 100 1012.2
20260904140319 65 293 11.0 15.0 0.00 0.00 0.00 100 1012.2
20260904135118 65 293 11.0 15.0 0.00 0.00 0.00 100 1012.2
20260904133916 65 293 10.0 16.0 0.00 0.00 0.00 100 1012.2
20260904132715 66 299 10.0 15.0 0.00 0.00 0.00 99 1012.2
20260904131614 67 310 14.0 18.0 0.00 0.00 0.00 99 1012.2
20260904130413 67 293 9.0 16.0 0.00 0.00 0.00 98 1012.2
20260904125212 69 315 13.0 24.0 0.00 0.00 0.00 96 1012.2
20260904124031 71 256 8.0 11.0 0.00 0.00 0.00 96 1011.4
20260904122809 71 270 10.0 16.0 0.00 0.00 0.00 96 1012.2
20260904121608 71 270 9.0 13.0 0.00 0.00 0.00 94 1012.2
20260904120407 72 270 9.0 12.0 0.00 0.00 0.00 92 1012.2
20260904115225 72 248 11.0 13.0 0.00 0.00 0.00 92 1012.2
20260904114004 72 270 10.0 12.0 0.00 0.00 0.00 93 1012.2
20260904112803 72 248 10.0 13.0 0.00 0.00 0.00 93 1012.2
20260904111602 72 270 15.0 20.0 0.00 0.00 0.00 93 1011.4
20260904110401 72 270 12.0 15.0 0.00 0.00 0.00 94 1012.2
20260904105200 72 270 9.0 11.0 0.00 0.00 0.00 93 1012.2
20260904103959 72 248 12.0 25.0 0.00 0.00 0.00 92 1012.2
20260904102818 73 253 13.0 18.0 0.00 0.00 0.00 92 1012.2
20260904101556 72 257 14.0 20.0 0.00 0.00 0.00 93 1012.2
20260904100355 72 257 14.0 18.0 0.00 0.00 0.00 93 1012.2
20260904095154 72 257 13.0 21.0 0.00 0.00 0.00 93 1010.5
20260904093953 73 263 16.0 18.0 0.00 0.00 0.00 93 1012.2
20260904092752 73 270 10.0 17.0 0.00 0.00 0.00 94 1012.2
20260904091550 72 248 11.0 16.0 0.00 0.00 0.00 95 1012.2
20260904090409 72 248 12.0 22.0 0.00 0.00 0.00 96 1012.2
20260904085148 72 236 16.0 26.0 0.00 0.00 0.00 97 1012.2
20260904084008 71 248 17.0 20.0 0.00 0.00 0.00 98 1012.2
20260904082745 71 235 11.0 16.0 0.00 0.00 0.00 99 1012.2
20260904081545 70 225 14.0 17.0 0.00 0.00 0.00 99 1012.2
20260904080344 70 242 12.0 15.0 0.00 0.00 0.00 99 1012.2
20260904075142 69 242 7.0 9.0 0.00 0.00 0.00 98 1012.2
20260904073941 70 248 14.0 20.0 0.00 0.00 0.00 98 1012.2
20260904072740 70 248 14.0 17.0 0.00 0.00 0.00 98 1012.2
20260904071539 70 266 13.0 16.0 0.00 0.00 0.00 98 1012.2
20260904070338 70 242 12.0 15.0 0.00 0.00 0.00 98 1012.2
20260904065137 70 248 14.0 18.0 0.00 0.00 0.00 97 1012.2
20260904063936 70 248 8.0 13.0 0.00 0.00 0.00 96 1012.2
20260904062754 69 248 11.0 15.0 0.00 0.00 0.00 96 1012.2
20260904061534 69 248 12.0 20.0 0.00 0.00 0.00 96 1012.2
20260904060332 69 248 12.0 20.0 0.00 0.00 0.00 96 1012.2
20260904055131 69 248 9.0 13.0 0.00 0.00 0.00 96 1012.2
20260904053930 69 254 11.0 15.0 0.00 0.00 0.00 95 1012.2
20260904052729 69 248 14.0 21.0 0.00 0.00 0.00 95 1012.2
20260904051528 69 248 11.0 15.0 0.00 0.00 0.00 96 1012.2
20260904050326 69 258 11.0 13.0 0.00 0.00 0.00 96 1012.2
20260904045125 69 248 10.0 16.0 0.00 0.00 0.00 96 1012.2
20260904043924 69 255 12.0 20.0 0.00 0.00 0.00 97 1012.2
20260904042723 69 261 11.0 16.0 0.00 0.00 0.00 97 1012.2
20260904041522 69 261 8.0 13.0 0.00 0.00 0.00 97 1012.2
20260904040341 69 253 8.0 11.0 0.00 0.00 0.00 97 1012.2
20260904035119 69 252 12.0 17.0 0.00 0.00 0.00 97 1012.2
20260904033938 69 248 15.0 19.0 0.00 0.00 0.00 97 1012.2
20260904032737 69 248 10.0 16.0 0.00 0.00 0.00 97 1012.2
20260904031516 69 259 10.0 13.0 0.00 0.00 0.00 97 1012.2
20260904030315 69 248 8.0 14.0 0.00 0.00 0.00 97 1012.2
20260904025214 69 248 7.0 12.0 0.00 0.00 0.00 97 1012.2
20260904024013 69 248 10.0 15.0 0.00 0.00 0.00 96 1012.2
20260904022812 69 263 9.0 13.0 0.00 0.00 0.00 96 1012.2
20260904021611 69 252 9.0 11.0 0.00 0.00 0.00 96 1012.2
20260904020410 69 248 12.0 15.0 0.00 0.00 0.00 96 1012.2
20260904015208 69 248 13.0 16.0 0.00 0.00 0.00 96 1012.2
20260904014007 69 261 11.0 18.0 0.00 0.00 0.00 96 1015.6
20260904012806 70 264 12.0 16.0 0.00 0.00 0.00 97 1015.6
20260904011605 70 248 10.0 20.0 0.00 0.00 0.00 97 1015.6
20260904010424 70 248 9.0 12.0 0.00 0.00 0.00 97 1015.6
20260904005223 70 248 8.0 10.0 0.00 0.00 0.00 96 1015.6
20260904004002 70 248 10.0 14.0 0.00 0.00 0.00 96 1015.6
20260904002801 70 265 7.0 11.0 0.00 0.00 0.00 96 1015.6
20260904001600 70 259 8.0 13.0 0.00 0.00 0.00 96 1015.6
20260904000359 70 259 11.0 15.0 0.00 0.00 0.00 96 1015.6
20260903235158 70 248 11.0 15.0 0.00 0.00 0.00 96 1015.6
20260903233956 70 248 11.0 15.0 0.00 0.00 0.00 96 1015.6
20260903232755 70 265 12.0 15.0 0.00 0.00 0.00 96 1015.6
20260903231614 70 248 9.0 11.0 0.00 0.00 0.00 96 1015.6
20260903230433 70 248 11.0 15.0 0.00 0.00 0.00 96 1015.6
20260903225153 70 248 9.0 11.0 0.00 0.00 0.00 96 1015.6
20260903223951 70 248 8.0 15.0 0.00 0.00 0.00 96 1015.6
20260903222750 70 264 7.0 10.0 0.00 0.00 0.00 96 1015.6
20260903221549 70 248 9.0 15.0 0.00 0.00 0.00 96 1015.6
20260903220348 70 248 8.0 11.0 0.00 0.00 0.00 96 1015.6
20260903215143 70 248 9.0 11.0 0.00 0.00 0.00 95 1015.6
20260903213922 70 248 5.0 11.0 0.00 0.00 0.00 95 1015.6
20260903212721 70 248 10.0 13.0 0.00 0.00 0.00 95 1015.6
20260903211520 70 248 11.0 16.0 0.00 0.00 0.00 95 1015.6
20260903210339 71 248 10.0 17.0 0.00 0.00 0.00 95 1015.6
20260903205138 71 248 9.0 13.0 0.00 0.00 0.00 95 1015.6
20260903203917 71 248 10.0 16.0 0.00 0.00 0.00 95 1015.6
20260903202716 71 265 10.0 12.0 0.00 0.00 0.00 95 1015.6
20260903201654 71 248 14.0 18.0 0.00 0.00 0.00 95 1015.6
20260903200413 70 248 7.0 12.0 0.00 0.00 0.00 95 1015.6
20260903195212 70 248 10.0 11.0 0.00 0.00 0.00 95 1015.6
20260903194011 70 248 8.0 10.0 0.00 0.00 0.00 95 1015.6